User: anonymous   Login
Location: Norwich
(52.6280°N, 1.3030°E)
Time: 20:13:47
(UTC+01:00)
Language:

ATLAS 5 CENTAUR R/B - Orbit

View from above orbital plane
View from above orbital plane
View from above satellite
View from above satellite

Ground track
Ground track

The orbit data is extracted from the following two-line orbital elements,

1 32379U 07060B   14291.89838067 0.00005500  00000-0  22249-2 0    07
2 32379  60.9742   8.7330 5192485 195.7123 138.6881  5.23218686    03
Epoch (UTC): 18 October 2014 21:33:40
Eccentricity: 0.5192485
inclination: 60.9742°
perigee height: 360 km
apogee height: 14915 km
right ascension of ascending node: 8.7330°
argument of perigee: 195.7123°
revolutions per day: 5.23218686
mean anomaly at epoch: 138.6881°
orbit number at epoch: 0

The dashed part of the orbit path shows where the satellite is in the earth's shadow,  

DLR